ARIANE 2 DEB, 27046

Orbit data source: Space-Track

ARIANE 2 DEB, 27046 is space debris in HEO originally from a launch on Fri, 27 Jan 1989 UTC launched from the French Guiana (FRGUI). Debris objects in space refer to the collection of defunct objects orbiting the Earth. Examples of debris include non-operational satellites, rocket bodies, and fragments generated from explosions, collisions, or faulty payload assembly.

Loading next visibility...
Identifier
27046, 1989-006AB
Orbit
HEO
Country
Flag of FRFR
Related business
Manufacturer
EADS/LV
Mission
Spacecraft
Bus & Motor
Unknown
Mass
Unknown
Launch date (UTC)
1989-01-27 (37 years ago)
Launch vehicle
Unknown
Launch site
French Guiana (FRGUI)
Object type
Payload
Rocket body
Debris
Shape & HBR
Unknown shape, 0.6 m
Radar Cross Section
Medium (>0.1 m² and <1 m²)

Expand to show TLE details & history
Last TLE update: 22 hours ago

TLE from 22 hours ago
0 ARIANE 2 DEB
1 27046U 89006AB  25348.71590943 -.00000107  00000-0 -55355-2 0  9997
2 27046   7.9442  57.2587 7078341 129.3716 303.9668  2.24291063107608
Epoch: 2025-12-14T17:10Z
TLE epoch observation values (Epoch: 2025-12-14T17:10:54.574Z)
Latitude
-1.34528°
Longitude
66.05669°
Altitude
20,214.763 km
Speed
3.716 km/s
True Right ascension
03h 09m 38s
True Declination
-1° 20' 35"
Sunlit
Object was in daylight at epoch
Visualization orbit readout
Latitude
Unknown
Longitude
Unknown
Altitude
Unknown
Speed
Unknown
Apparent Right ascension
Unknown
Apparent Declination
Unknown
Sunlit
N/A
Visualization observer readout
Local Sidereal Time
13:22:53
Azimuth
Unknown
Elevation
Unknown
Doppler factor
Unknown
Orbital elements
Apogee altitude
35,732.636 km
Perigee altitude
825.919 km
Semi-major axis
24,657.414 km
Eccentricity
0.70783
Inclination
7.9442°
RAAN
57.2587°
Arg. of periapsis
129.3716°
True anomaly
220.62852°
Mean anomaly
303.9668°
Eccentric anomaly
263.65901°
Mean motion
0.56056 °/min
Orbital period
642.22 mins
BSTAR
-0.0055355
Loading maneuver chart data...
Computing Atmospheric mass density...
Loading historical data...
Loading historical data...
Loading historical data...
Loading historical data...
Loading historical data...
Loading historical data...
Loading historical data...

Documentation

Showing up to 5 results
|